Location: Northam
(31.6525°S, 116.6655°E)
Time: 17:04:55
(UTC+08:00)

Transit 4A - Visible Passes

Search period start: 15 June 2021 00:00
Search period end: 25 June 2021 00:00
Orbit: 872 x 973 km, 66.8° (Epoch: 14 June)

Date Brightness Start Highest point End Pass type
(mag) Time Alt. Az. Time Alt. Az. Time Alt. Az.
16 Jun 10.3 06:21:30 10° SSE 06:24:45 14° SE 06:27:57 10° E visible
17 Jun 10.1 06:29:43 10° S 06:34:26 21° SE 06:39:04 10° E visible
18 Jun 9.6 06:38:24 10° S 06:44:01 31° ESE 06:49:31 10° ENE visible
19 Jun 9.0 06:47:20 10° SSW 06:53:29 46° ESE 06:59:30 10° NE visible
20 Jun 10.6 05:14:00 10° SSE 05:15:21 11° SE 05:16:41 10° ESE visible
21 Jun 10.3 05:21:15 10° SSE 05:25:07 16° SE 05:28:56 10° E visible
22 Jun 9.9 05:29:41 10° S 05:34:46 24° SE 05:39:46 10° ENE visible
23 Jun 9.4 05:38:28 10° S 05:44:18 35° ESE 05:50:01 10° ENE visible
23 Jun 10.3 20:39:17 10° NNW 20:39:53 13° NNW 20:39:53 13° NNW visible
24 Jun 8.7 05:47:28 10° SSW 05:53:45 53° ESE 05:59:52 10° NE visible
24 Jun 9.4 19:04:09 10° NNE 19:06:24 18° NE 19:06:24 18° NE visible
24 Jun 10.3 20:48:55 10° NW 20:49:59 15° NW 20:49:59 15° NW visible
